Regional Weather Roundup
Issued by NWS

Home | Current Version | Previous Version | Text Only | Print | Product List | Glossary On
Versions: 1 2 3 4 5 6 7 8 9 10 11 12 13 14 15 16 17 18 19 20 21 22 23 24 25 26 27 28 29 30 31 32 33 34 35 36 37 38 39 40 41 42 43 44 45 46 47 48 49 50
000
ASUS43 KLSX 211107
RWRMO

WEATHER SUMMARY FOR MISSOURI
NATIONAL WEATHER SERVICE SPRINGFIELD MO
600 AM CDT WED OCT 21 2020

NOTE: "FAIR" INDICATES FEW OR NO CLOUDS BELOW 12,000 FEET WITH NO
       SIGNIFICANT WEATHER AND/OR OBSTRUCTIONS TO VISIBILITY.
       CURRENT SKY AND/OR WEATHER CONDITIONS ARE NOT AVAILABLE FOR
       CHILLICOTHE AND FARMINGTON.

MOZ001>031-035>038-043-044-053-054-211200-
...NORTHERN AND WESTERN MISSOURI...

CITY           SKY/WX    TMP DP  RH WIND       PRES   REMARKS
KANSAS CTY INT MOCLDY    38  38 100 NE5       30.14R FOG
KANSAS C DTWN  PTCLDY    42  40  92 SE3       30.15R FOG
LEE`S SUMMIT   CLOUDY    42  42 100 E7        30.15R FOG
ST JOSEPH      FOG       38  37  97 N3        30.17R VSB 1/4
CHILLICOTHE      N/A     38  37  97 CALM      30.17S
KIRKSVILLE     PTCLDY    41  39  93 N7        30.16R

$$
MOZ066>068-077>081-088>096-101>105-211200-
...SOUTHWEST MISSOURI...

CITY           SKY/WX    TMP DP  RH WIND       PRES   REMARKS
SPRINGFIELD    CLOUDY    55  55 100 NE3       30.10R
JOPLIN         CLOUDY    54  52  93 VRB5      30.09R
BRANSON        FOG       57  57 100 CALM      30.11R VSB<1/4

$$
MOZ032>034-039>042-045>050-055>058-069>072-211200-
...CENTRAL MISSOURI...

CITY           SKY/WX    TMP DP  RH WIND       PRES   REMARKS
COLUMBIA       FOG       47  45  93 N7        30.16R VSB 1/2
JEFFERSON CITY CLOUDY    50  46  86 CALM      30.17R FOG
ROLLA          LGT RAIN  51  49  92 N5        30.14R
SEDALIA        CLOUDY    46  43  89 N9        30.16R
WHITEMAN AFB   CLOUDY    45  45 100 NE8       30.10F FOG
WARRENSBURG    CLOUDY    43  41  93 CALM      30.15S FOG
OSAGE BEACH    LGT RAIN  50  49  96 VRB5      30.16R FOG

$$
MOZ051-052-059>065-211200-
...EAST CENTRAL MISSOURI...

CITY           SKY/WX    TMP DP  RH WIND       PRES   REMARKS
ST LOUIS INTL  CLOUDY    53  50  89 NW6       30.16R
SPIRIT OF STL  CLOUDY    52  49  89 N6        30.15R
ST CHARLES     CLOUDY    52  49  89 NW5       30.15R

$$
MOZ072>076-082>087-097>100-106>115-211200-
...SOUTH CENTRAL AND SOUTHEAST MISSOURI...

CITY           SKY/WX    TMP DP  RH WIND       PRES   REMARKS
CAPE GIRARDEAU FOG       57  56  96 SE3       30.12R VSB 1/4
FARMINGTON     FOG       59  59 100 N3        30.14R VSB 1
POPLAR BLUFF   CLEAR     53  52  96 CALM      30.11R
WEST PLAINS    FOG       60  59  96 CALM      30.11R VSB 1/4

$$



USA.gov is the U.S. government's official web portal to all federal, state and local government web resources and services.